FW7308 Weather Reports


time (UTC)temp
C
wind
direction
speed
KPH
gust
KPH
rain 1hr
cm
rain 24hr
cm
rain mn
cm
humidity
%
barometer
mb
20260904013739 18 0.0 0.0 0.00 0.00 0.10 99 1015.4
20260904013233 18 0.0 0.0 0.00 0.00 0.10 99 1015.4
20260904012737 18 0.0 0.0 0.00 0.00 0.10 99 1015.4
20260904012235 18 323 1.6 1.6 0.00 0.00 0.10 99 1015.4
20260904011733 18 324 1.6 1.6 0.00 0.00 0.10 99 1015.4
20260904011232 18 322 1.6 3.2 0.00 0.00 0.10 99 1015.1
20260904010731 18 326 1.6 3.2 0.00 0.00 0.10 99 1015.4
20260904010236 18 320 3.2 3.2 0.00 0.00 0.10 99 1015.4
20260904005731 18 323 1.6 1.6 0.00 0.00 0.10 99 1015.4
20260904004730 18 321 1.6 3.2 0.00 0.00 0.10 99 1015.4
20260904004231 18 325 1.6 3.2 0.00 0.00 0.10 99 1015.4
20260904003731 18 328 3.2 3.2 0.00 0.00 0.10 99 1015.1
20260904003329 18 330 1.6 3.2 0.00 0.00 0.10 99 1015.1
20260904002829 18 322 1.6 3.2 0.00 0.00 0.10 99 1015.1
20260904002229 18 328 3.2 3.2 0.00 0.00 0.10 99 1015.1
20260904001729 18 326 1.6 3.2 0.00 0.00 0.10 99 1015.1
20260904001328 18 323 1.6 3.2 0.00 0.00 0.10 99 1015.1
20260904000727 19 329 1.6 3.2 0.00 0.00 0.10 99 1015.1
20260904000226 19 325 3.2 3.2 0.00 0.00 0.10 99 1014.7
20260903235728 19 0.0 0.0 0.00 0.00 0.10 99 1014.7
20260903235227 19 331 1.6 1.6 0.00 0.00 0.10 99 1014.7
20260903234726 19 329 1.6 3.2 0.00 0.00 0.10 99 1014.7
20260903234225 20 323 1.6 1.6 0.00 0.00 0.10 99 1014.4
20260903233724 20 326 1.6 1.6 0.00 0.00 0.10 99 1014.4
20260903233226 20 0.0 0.0 0.00 0.00 0.10 99 1014.4
20260903232725 20 325 1.6 1.6 0.00 0.00 0.10 99 1014.5
20260903232225 20 323 1.6 1.6 0.00 0.00 0.10 99 1014.4
20260903231723 20 322 1.6 1.6 0.00 0.00 0.10 99 1014.4
20260903231225 20 323 1.6 1.6 0.00 0.00 0.10 99 1014.4
20260903230724 20 326 1.6 1.6 0.00 0.00 0.10 99 1014.7
20260903230223 20 327 0.0 1.6 0.00 0.00 0.10 99 1014.7
20260903225827 20 323 3.2 3.2 0.00 0.00 0.10 99 1014.7
20260903225226 21 323 3.2 3.2 0.00 0.00 0.10 99 1014.7
20260903224722 21 0.0 0.0 0.00 0.00 0.10 99 1014.7
20260903223722 21 346 0.0 1.6 0.00 0.00 0.10 99 1014.7
20260903223224 21 331 0.0 1.6 0.00 0.00 0.10 99 1014.7
20260903222724 22 0.0 0.0 0.00 0.00 0.10 97 1014.4
20260903222220 22 0.0 0.0 0.00 0.00 0.10 97 1014.5
20260903221822 22 0.0 0.0 0.00 0.00 0.10 97 1014.7
20260903221321 23 0.0 0.0 0.00 0.00 0.10 93 1014.7
20260903220800 -17 0.0 0.0 0.00 0.00 0.10 1014.7
20260903210245 23 324 1.6 1.6 0.00 0.00 0.10 90 1014.7
20260903205744 23 324 1.6 1.6 0.00 0.00 0.10 90 1015.1
20260903195241 23 302 4.8 4.8 0.00 0.00 0.10 91 1015.1
20260903194740 22 263 4.8 8.0 0.00 0.00 0.10 92 1015.1
20260903194239 22 263 4.8 8.0 0.00 0.00 0.10 92 1015.4
20260903193738 22 125 8.0 11.3 0.00 0.00 0.10 94 1015.4
20260903193240 22 149 8.0 11.3 0.00 0.00 0.10 94 1015.4
20260903192739 22 283 4.8 4.8 0.00 0.00 0.10 94 1015.1
20260903192238 21 212 6.4 11.3 0.00 0.00 0.10 94 1015.4
20260903191739 21 33 6.4 8.0 0.00 0.00 0.10 94 1015.4
20260903191238 21 303 3.2 3.2 0.00 0.00 0.10 93 1015.4
20260903190737 21 303 3.2 3.2 0.00 0.00 0.10 93 1015.6
20260903190237 22 100 9.7 11.3 0.00 0.00 0.10 93 1015.4
20260903185736 21 283 4.8 4.8 0.00 0.00 0.10 94 1015.8
20260903185237 21 238 6.4 11.3 0.00 0.00 0.10 94 1015.8
20260903184839 21 89 6.4 9.7 0.00 0.00 0.10 95 1015.6
20260903184236 21 318 3.2 4.8 0.00 0.00 0.10 95 1015.8
20260903183902 21 292 3.2 3.2 0.00 0.00 0.10 95 1015.8
20260903183339 21 290 3.2 4.8 0.00 0.00 0.10 96 1015.8
20260903182735 21 289 4.8 8.0 0.00 0.00 0.10 97 1015.8
20260903182236 21 325 3.2 4.8 0.00 0.00 0.10 97 1016.1
20260903181734 21 285 4.8 4.8 0.00 0.00 0.10 97 1016.1
20260903180735 20 328 0.0 1.6 0.00 0.00 0.10 99 1015.8
20260903180234 20 297 3.2 4.8 0.00 0.00 0.10 99 1015.9
20260903175732 20 345 1.6 1.6 0.00 0.00 0.10 99 1016.1
20260903175235 20 339 1.6 1.6 0.00 0.00 0.10 99 1016.1
20260903174733 19 286 3.2 3.2 0.00 0.00 0.10 99 1016.1
20260903174232 19 273 3.2 4.8 0.00 0.00 0.10 99 1016.1
20260903173731 19 331 1.6 1.6 0.00 0.00 0.10 99 1016.1
20260903173234 18 334 1.6 3.2 0.00 0.00 0.10 99 1016.1
20260903172734 18 353 3.2 4.8 0.00 0.00 0.10 99 1016.1
20260903172231 18 294 3.2 4.8 0.00 0.00 0.10 99 1016.3
20260903171730 18 297 4.8 4.8 0.00 0.00 0.10 99 1016.1
20260903171232 18 17 3.2 3.2 0.00 0.00 0.10 99 1016.1
20260903170800 18 314 3.2 3.2 0.00 0.00 0.10 99 1016.1
20260903170229 18 0.0 0.0 0.00 0.00 0.10 99 1016.5
20260903165731 18 298 3.2 3.2 0.00 0.00 0.10 99 1016.5
20260903165230 18 334 3.2 3.2 0.00 0.00 0.10 99 1016.5
20260903164730 18 310 3.2 3.2 0.00 0.00 0.10 99 1016.5
20260903164229 18 313 1.6 1.6 0.00 0.00 0.10 99 1016.5
20260903163732 17 335 3.2 3.2 0.00 0.00 0.10 99 1016.5
20260903163228 17 314 1.6 3.2 0.00 0.00 0.10 99 1016.5
20260903162727 17 274 3.2 4.8 0.00 0.00 0.10 99 1016.5
20260903162226 17 0.0 0.0 0.00 0.00 0.10 99 1016.5
20260903161726 17 0.0 0.0 0.00 0.00 0.10 99 1016.5
20260903161225 17 315 3.2 3.2 0.00 0.00 0.10 99 1016.6
20260903160726 17 335 1.6 1.6 0.00 0.00 0.10 99 1016.5
20260903160225 17 0.0 0.0 0.00 0.00 0.10 99 1016.8
20260903155725 17 323 1.6 1.6 0.00 0.00 0.10 99 1016.8
20260903155224 17 326 0.0 1.6 0.00 0.00 0.10 99 1016.8
20260903154825 17 0.0 0.0 0.00 0.00 0.10 99 1016.8
20260903154224 17 340 1.6 1.6 0.00 0.00 0.10 99 1016.6
20260903153823 17 354 3.2 3.2 0.00 0.00 0.10 99 1016.5
20260903153222 16 321 0.0 1.6 0.00 0.00 0.10 99 1016.8
20260903152723 16 341 1.6 1.6 0.00 0.00 0.10 99 1016.8
20260903152222 16 312 3.2 3.2 0.00 0.00 0.10 99 1016.8
20260903151722 16 312 1.6 3.2 0.00 0.00 0.10 99 1016.8
20260903151221 16 329 0.0 1.6 0.00 0.00 0.10 99 1016.8
20260903150723 16 285 3.2 4.8 0.00 0.00 0.10 99 1017.0
20260903150224 16 332 3.2 3.2 0.00 0.00 0.10 99 1016.8
20260903145721 16 331 1.6 3.2 0.00 0.00 0.10 99 1016.8
20260903145220 16 339 1.6 1.6 0.00 0.00 0.10 99 1017.0
20260903144721 16 335 1.6 1.6 0.00 0.00 0.10 99 1016.8
20260903144222 16 316 1.6 1.6 0.00 0.00 0.10 99 1017.2
20260903143719 16 329 0.0 1.6 0.00 0.00 0.10 99 1017.2
20260903143220 16 329 1.6 1.6 0.00 0.00 0.10 99 1017.2
20260903142719 16 328 1.6 1.6 0.00 0.00 0.10 99 1017.2
20260903142219 16 0.0 0.0 0.00 0.00 0.10 99 1017.2
20260903141908 16 339 0.0 1.6 0.00 0.00 0.10 99 1017.2
20260903141219 15 334 0.0 1.6 0.00 0.00 0.10 99 1017.2
20260903140718 15 341 1.6 3.2 0.00 0.00 0.10 99 1017.0
20260903140218 15 336 1.6 1.6 0.00 0.00 0.10 99 1017.0
20260903135718 15 344 1.6 3.2 0.00 0.00 0.10 99 1017.2
20260903134717 15 5 3.2 4.8 0.00 0.00 0.10 99 1017.2
20260903134216 15 358 1.6 3.2 0.00 0.00 0.10 99 1017.2
20260903133745 15 346 1.6 3.2 0.00 0.00 0.10 99 1017.2
20260903133246 15 14 3.2 3.2 0.00 0.00 0.10 99 1017.2
20260903132745 15 326 1.6 1.6 0.00 0.00 0.10 99 1017.2
20260903132244 15 326 3.2 3.2 0.00 0.00 0.10 99 1017.2
20260903131745 15 347 0.0 1.6 0.00 0.00 0.10 99 1017.2
20260903131244 15 336 0.0 1.6 0.00 0.00 0.10 99 1017.2
20260903130743 15 352 3.2 3.2 0.00 0.00 0.10 99 1017.2
20260903130243 15 344 1.6 1.6 0.00 0.00 0.10 99 1017.2
20260903125742 15 12 3.2 4.8 0.00 0.00 0.10 99 1017.2
20260903125243 15 346 3.2 3.2 0.00 0.00 0.10 99 1017.2
20260903124844 15 330 1.6 3.2 0.00 0.00 0.10 99 1017.3
20260903124242 15 339 1.6 3.2 0.00 0.00 0.10 99 1017.3
20260903123741 15 7 4.8 4.8 0.00 0.00 0.10 99 1017.5
20260903123242 15 323 3.2 4.8 0.00 0.00 0.10 99 1017.5
20260903114739 15 323 3.2 3.2 0.00 0.00 0.10 99 1017.9
20260903114238 15 341 3.2 4.8 0.00 0.00 0.10 99 1017.9
20260903113238 15 136 6.4 9.7 0.00 0.00 0.10 99 1017.9
20260903112738 15 81 4.8 8.0 0.00 0.00 0.10 99 1017.9
20260903112337 15 299 3.2 3.2 0.00 0.00 0.10 99 1017.9
20260903111736 15 58 3.2 8.0 0.00 0.00 0.10 99 1017.9
20260903111235 15 164 4.8 9.7 0.00 0.00 0.10 99 1017.9
20260903110736 15 213 4.8 8.0 0.00 0.00 0.10 99 1017.9
20260903110235 15 254 4.8 4.8 0.00 0.00 0.10 99 1017.9
20260903105734 15 50 4.8 4.8 0.00 0.00 0.10 99 1017.9
20260903105236 14 268 1.6 3.2 0.00 0.00 0.10 99 1017.9
20260903104735 14 282 3.2 4.8 0.00 0.00 0.10 99 1017.9
20260903104234 14 29 4.8 4.8 0.00 0.00 0.10 99 1017.9
20260903103733 14 335 3.2 3.2 0.00 0.00 0.10 99 1017.7
20260903103232 14 9 3.2 4.8 0.00 0.00 0.10 99 1017.5
20260903102734 14 313 1.6 3.2 0.00 0.00 0.10 99 1017.5
20260903102233 14 118 4.8 8.0 0.00 0.00 0.10 99 1017.5
20260903101732 14 6 3.2 4.8 0.00 0.00 0.10 99 1017.5
20260903101231 14 164 4.8 9.7 0.00 0.00 0.10 99 1017.9
20260903100734 14 318 3.2 3.2 0.00 0.00 0.10 99 1017.5
20260903100232 14 105 4.8 8.0 0.00 0.00 0.10 99 1017.9
20260903095731 14 341 1.6 3.2 0.00 0.00 0.10 99 1017.9
20260903095230 14 326 3.2 4.8 0.00 0.00 0.08 99 1017.9
20260903094731 14 32 3.2 4.8 0.00 0.00 0.08 99 1017.9
20260903094235 14 112 6.4 8.0 0.00 0.00 0.08 99 1017.9
20260903093735 14 43 4.8 8.0 0.00 0.00 0.08 99 1017.9
20260903093229 14 46 4.8 4.8 0.00 0.00 0.08 99 1017.9
20260903092728 14 228 4.8 4.8 0.00 0.00 0.08 99 1017.5
20260903092229 14 90 6.4 9.7 0.00 0.00 0.08 99 1017.9
20260903091230 14 49 4.8 9.7 0.00 0.00 0.08 99 1017.5
20260903090727 14 167 8.0 11.3 0.00 0.00 0.08 99 1017.9
20260903085227 14 59 11.3 17.7 0.00 0.00 0.08 99 1017.9
20260903084728 14 4 4.8 4.8 0.00 0.00 0.08 99 1017.9
20260903084227 14 50 4.8 8.0 0.00 0.00 0.08 99 1018.2
20260903083726 14 173 8.0 9.7 0.00 0.00 0.08 99 1018.2
20260903083225 14 341 3.2 4.8 0.00 0.00 0.08 99 1018.4
20260903082724 14 74 6.4 8.0 0.00 0.00 0.08 99 1018.2
20260903081725 14 21 1.6 3.2 0.00 0.00 0.08 99 1018.4
20260903080225 14 8 1.6 3.2 0.00 0.00 0.08 99 1018.2
20260903075728 14 325 1.6 3.2 0.00 0.00 0.08 99 1018.2
20260903075223 14 354 3.2 4.8 0.00 0.00 0.08 99 1018.6
20260903074223 14 337 0.0 1.6 0.00 0.00 0.08 99 1018.4
20260903073722 14 8 3.2 4.8 0.00 0.00 0.08 99 1018.6
20260903073221 14 26 4.8 8.0 0.00 0.00 0.08 99 1018.6
20260903072720 14 7 3.2 3.2 0.00 0.00 0.08 99 1018.6
20260903072222 14 355 1.6 3.2 0.00 0.00 0.08 99 1018.6
20260903071721 14 11 4.8 4.8 0.00 0.00 0.08 99 1018.6
20260903071221 14 76 4.8 8.0 0.00 0.00 0.08 99 1018.6
20260903070719 14 163 4.8 9.7 0.00 0.00 0.08 99 1018.6
20260903070218 14 11 3.2 4.8 0.00 0.00 0.08 99 1018.6
20260903065720 14 325 0.0 1.6 0.00 0.00 0.08 99 1018.7
20260903065219 14 340 1.6 3.2 0.00 0.00 0.08 99 1018.6
20260903064718 14 351 3.2 4.8 0.00 0.00 0.08 99 1018.6
20260903063718 14 79 6.4 9.7 0.00 0.00 0.08 99 1018.6
20260903063217 14 4 3.2 4.8 0.00 0.00 0.08 99 1018.6
20260903062717 14 9 3.2 4.8 0.00 0.00 0.08 99 1018.6
20260903062216 14 123 6.4 9.7 0.00 0.00 0.08 99 1018.6
20260903061858 15 66 8.0 14.5 0.00 0.00 0.08 99 1018.6
20260903050742 16 25 4.8 8.0 0.00 0.00 0.00 91 1020.0
20260903050241 16 346 4.8 8.0 0.00 0.00 0.00 91 1020.1
20260903045742 16 40 6.4 8.0 0.00 0.00 0.00 90 1020.0
20260903045241 16 172 9.7 12.9 0.00 0.00 0.00 89 1020.0
20260903044740 16 95 8.0 9.7 0.00 0.00 0.00 89 1020.0
20260903044240 16 114 12.9 14.5 0.00 0.00 0.00 89 1019.8
20260903043739 16 57 6.4 8.0 0.00 0.00 0.00 89 1020.0
20260903043240 16 64 4.8 8.0 0.00 0.00 0.00 89 1020.0
20260903042739 16 52 3.2 4.8 0.00 0.00 0.00 90 1020.0
20260903042238 16 138 11.3 16.1 0.00 0.00 0.00 89 1020.0
20260903041738 16 171 9.7 11.3 0.00 0.00 0.00 90 1020.0
20260903041341 16 158 8.0 12.9 0.00 0.00 0.00 90 1020.3
20260903040738 16 192 4.8 8.0 0.00 0.00 0.00 90 1020.3
20260903040239 16 86 6.4 8.0 0.00 0.00 0.00 91 1020.3
20260903035737 16 21 4.8 4.8 0.00 0.00 0.00 92 1020.7
20260903035238 16 149 4.8 8.0 0.00 0.00 0.00 92 1020.7
20260903034738 16 249 6.4 8.0 0.00 0.00 0.00 92 1020.3
20260903034236 16 249 4.8 8.0 0.00 0.00 0.00 93 1020.3
20260903033735 16 115 6.4 8.0 0.00 0.00 0.00 93 1020.3
20260903033236 16 119 4.8 8.0 0.00 0.00 0.00 93 1020.3
20260903032736 16 54 4.8 8.0 0.00 0.00 0.00 93 1020.7
20260903032237 16 354 3.2 4.8 0.00 0.00 0.00 94 1020.3
20260903031737 16 353 3.2 3.2 0.00 0.00 0.00 94 1020.7
20260903031336 16 178 6.4 11.3 0.00 0.00 0.00 94 1021.0
20260903030735 16 338 4.8 8.0 0.00 0.00 0.00 94 1020.8
20260903030234 16 96 6.4 8.0 0.00 0.00 0.00 95 1021.0
20260903025734 16 176 4.8 8.0 0.00 0.00 0.00 95 1021.0
20260903025234 16 44 6.4 9.7 0.00 0.00 0.00 96 1021.0
20260903024733 16 343 3.2 4.8 0.00 0.00 0.00 96 1020.8
20260903024232 16 323 3.2 4.8 0.00 0.00 0.00 96 1021.0
20260903023733 16 357 1.6 3.2 0.00 0.00 0.00 97 1021.0
20260903023232 16 20 4.8 4.8 0.00 0.00 0.00 98 1021.0